COSMOS 2534 (758) (44299 NORAD) Tracking and Keplerian Element Data

This shows tracking and keplerian element data for the satellite.

Feedback or suggestion? Click here.




ElementValue
Catalog44299
NameCOSMOS 2534 (758)
Epoch Orbit110
Epoch Day199.27922828
Epoch Year2019
RAAN278.4742
Inclination64.7647
Eccentricity0.001313
Argument of Perigee284.0684
Mean Anonmoly303.0941
Mean Motion2.13101934
Decay Rate3E-08
L11 44299U 19030A 19199.27922828 .00000003 00000-0 00000+0 0 9992
L22 44299 64.7647 278.4742 0013130 284.0684 303.0941 2.13101934 1104

Live tracking and technical data element details for COSMOS 2534 (758) (NORAD 44299). COSMOS 2534 (758) can be tracked NOW for your location showing map with azimuth and elevation plus other details from your city location.

Track the satellite on the map from your city or location and see movement details for azimuth, elevation, latitude, longitude, range, height, and movement on the map or in text.







IsCatalogInMostPopularTable: catalog: 44299, numindb: 9
Update: records affected: 1



GetName: 44299 COSMOS 2534 (758)

Hit Count: updated at: Fri, 19 Jul 2019 07:59:55 GMT